Weather History for Broomfield, CO

Change the Weather History Date:

Thursday, February 7, 2013

  Actual Average Record
Temperature  
Mean Temperature 37 °F -  
Max Temperature 48 °F 42 °F 68 °F (1987)
Min Temperature 26 °F 22 °F -5 °F (2014)
Degree Days  
Heating Degree Days 28    
Moisture  
Dew Point 19 °F    
Average Humidity 58    
Maximum Humidity 100    
Minimum Humidity 20    
Precipitation  
Precipitation 0.00 in - - ()
Sea Level Pressure  
Sea Level Pressure 30.08 in    
Wind  
Wind Speed 5 mph (South)    
Max Wind Speed 13 mph    
Max Gust Speed 16 mph    
Visibility 11 miles    
Events      
Averages and records for this station are not official NWS values.
T = Trace of Precipitation, MM = Missing Value Source: NWS Daily Summary

Daily Weather History Graph

Daily Weather History Graph

Search for Another Location

Airport:

Trip Planner

Search our weather history database for the weather conditions in past years. The results will help you decide how hot, cold, wet, or windy it might be!

Date:

Astronomy

Feb. 07, 2013 Rise Set
Actual Time 7:02 AM MST 5:27 PM MST
Civil Twilight 6:34 AM MST 5:55 PM MST
Nautical Twilight 6:02 AM MST 6:27 PM MST
Astronomical Twilight 5:30 AM MST 6:59 PM MST
Moon 4:43 AM MST (2/7) 2:54 PM MST (2/7)
Length of Visible Light 11h 21m
Length of Day
10h 25m
Waning Crescent, 8% of the Moon is Illuminated
Feb 7
Waning Crescent
Feb 10
New
Feb 17
First Quarter
Feb 25
Full
Mar 4
Last Quarter

Hourly Weather History & Observations

Time (MST) Temp. Windchill Dew Point Humidity Pressure Visibility Wind Dir Wind Speed Gust Speed Precip Events Conditions
12:16 AM 33.8 °F 27.0 °F 32.0 °F 93% 30.07 in 7.0 mi SSW 8.1 mph - N/A   Clear
12:36 AM 33.8 °F 29.6 °F 32.0 °F 93% 30.08 in 10.0 mi SE 4.6 mph - N/A   Scattered Clouds
12:56 AM 32.0 °F 27.5 °F 32.0 °F 100% 30.07 in 7.0 mi South 4.6 mph - N/A   Mostly Cloudy
1:16 AM 33.8 °F 27.7 °F 32.0 °F 93% 30.09 in 7.0 mi East 6.9 mph - N/A   Overcast
1:36 AM 33.8 °F 26.4 °F 32.0 °F 93% 30.10 in 10.0 mi ENE 9.2 mph - N/A   Overcast
1:56 AM 32.0 °F 26.4 °F 26.6 °F 80% 30.10 in 10.0 mi ENE 5.8 mph - N/A   Mostly Cloudy
2:16 AM 32.0 °F 25.6 °F 26.6 °F 80% 30.11 in 10.0 mi NNE 6.9 mph - N/A   Mostly Cloudy
2:36 AM 32.0 °F - 26.6 °F 80% 30.12 in 10.0 mi Calm Calm - N/A   Overcast
2:55 AM 32.0 °F 28.7 °F 26.6 °F 80% 30.12 in 10.0 mi ENE 3.5 mph - N/A   Overcast
3:16 AM 32.0 °F - 28.4 °F 87% 30.11 in 10.0 mi Calm Calm - N/A   Overcast
3:36 AM 32.0 °F - 28.4 °F 87% 30.10 in 10.0 mi Calm Calm - N/A   Mostly Cloudy
3:55 AM 32.0 °F - 28.4 °F 87% 30.10 in 10.0 mi Calm Calm - N/A   Scattered Clouds
4:16 AM 32.0 °F - 28.4 °F 87% 30.11 in 10.0 mi Calm Calm - N/A   Clear
4:36 AM 30.2 °F - 26.6 °F 86% 30.11 in 10.0 mi Calm Calm - N/A   Clear
4:56 AM 28.4 °F 22.2 °F 23.0 °F 80% 30.11 in 10.0 mi West 5.8 mph - N/A   Clear
5:46 AM 26.6 °F - 23.0 °F 86% 30.12 in 30.0 mi Calm Calm - N/A   Scattered Clouds
6:46 AM 28.4 °F 24.6 °F 24.8 °F 86% 30.13 in 60.0 mi Variable 3.5 mph - N/A   Partly Cloudy
7:46 AM 28.4 °F 24.6 °F 23.0 °F 80% 30.14 in 50.0 mi West 3.5 mph - N/A   Clear
8:53 AM 35.6 °F - 24.8 °F 65% 30.15 in 60.0 mi Calm Calm - N/A   Clear
9:50 AM 39.2 °F 35.9 °F 21.2 °F 49% 30.15 in 40.0 mi Variable 4.6 mph - N/A   Clear
10:47 AM 41.0 °F 38.0 °F 17.6 °F 39% 30.15 in 40.0 mi South 4.6 mph - N/A   Clear
11:10 AM 42.8 °F 38.6 °F 17.6 °F 36% 30.15 in 40.0 mi SE 6.9 mph - N/A   Clear
11:45 AM 42.8 °F 38.6 °F 14.0 °F 31% 30.14 in 40.0 mi SE 6.9 mph - N/A   Clear
12:48 PM 46.4 °F 40.7 °F 6.8 °F 20% 30.11 in 40.0 mi SE 12.7 mph 16.1 mph N/A   Partly Cloudy
1:45 PM 46.4 °F 41.9 °F 6.8 °F 20% 30.08 in 50.0 mi SSE 9.2 mph - N/A   Partly Cloudy
2:50 PM 48.2 °F - 8.6 °F 20% 30.06 in 40.0 mi SSE 8.1 mph - N/A   Partly Cloudy
3:55 PM 48.2 °F - 12.2 °F 24% 30.05 in 40.0 mi SE 8.1 mph - N/A   Partly Cloudy
4:47 PM 46.4 °F 42.4 °F 12.2 °F 25% 30.05 in 30.0 mi SSE 8.1 mph - N/A   Partly Cloudy
5:36 PM 44.6 °F 42.2 °F 15.8 °F 31% 30.06 in 30.0 mi South 4.6 mph - N/A   Partly Cloudy
5:47 PM 42.8 °F 41.1 °F 17.6 °F 36% 30.06 in 30.0 mi South 3.5 mph - N/A   Partly Cloudy
6:51 PM 35.6 °F 31.7 °F 17.6 °F 48% 30.05 in 20.0 mi WSW 4.6 mph - N/A   Clear
7:45 PM 35.6 °F 32.8 °F 12.2 °F 38% 30.05 in 40.0 mi WSW 3.5 mph - N/A   Clear
8:55 PM 37.4 °F - 10.4 °F 33% 30.03 in 20.0 mi Calm Calm - N/A   Clear
9:50 PM 32.0 °F - 10.4 °F 41% 30.03 in 20.0 mi Calm Calm - N/A   Clear
10:16 PM 32.0 °F 27.5 °F 8.6 °F 38% 30.02 in 10.0 mi SW 4.6 mph - N/A   Clear
10:35 PM 32.0 °F 27.5 °F 6.8 °F 35% 30.01 in 10.0 mi West 4.6 mph - N/A   Clear
10:56 PM 33.8 °F - 8.6 °F 35% 30.00 in 10.0 mi Calm Calm - N/A   Clear
11:16 PM 33.8 °F - 6.8 °F 32% 30.00 in 10.0 mi Calm Calm - N/A   Clear
11:36 PM 35.6 °F - 8.6 °F 33% 30.00 in 10.0 mi Calm Calm - N/A   Clear
11:56 PM 32.0 °F - 8.6 °F 38% 30.00 in 10.0 mi Calm Calm - N/A   Clear